Hauptseite
METAR-TAF:

METAR-TAF

Flughäfen :

Kinloss Barracks

Kinloss, Schottland

Breite: 57-39N, Länge: 003-34W, Höhe: 7 m

Beobachtung

Neuester Wetterbericht von vor 58 Minuten, um 09:50 UTC
Wind 15 kt aus Süd, Böen bis zu 27 kt
Temperatur 13°C
Luftfeuchtigkeit 58%
Luftdruck 1000 hPa
Sichtweite 10 km oder mehr

METAR: EGQK 260950Z AUTO 18015G27KT 9999 FEW031/// BKN080/// 13/05 Q1000

Zeit: 11:48 (10:48 UTC)


TAF: fehlend

Wetterbeobachtungen und Prognosen von mehr als 4000 Flughäfen (METAR und TAF Bericht).

Die verfügbaren Stationen werden durch gelbe und rote Markierungen auf der Karte dargestellt.

Führen Sie die Maus auf sie, um den Namen der Station zu sehen.

Darauf klicken, um die Beobachtung von Wetterbeobachtungen und Prognosen zu sehen.

Um die Karte zu ändern : klicken Sie auf den grünen Tasten mit einem schwarzen Kreuz Zum Vergrößern, auf den grünen Button mit einem Gedankenstrich zu verkleinern, oder auf die grünen Pfeile für benachbarte Karten.


METAR-TAF: